Regional Weather Roundup
Issued by NWS

Home | Current Version | Previous Version | Graphics & Text | Print | Product List | Glossary On
Versions: 1 2 3 4 5 6 7 8 9 10 11 12 13 14 15 16 17 18 19 20 21 22 23 24 25 26 27 28 29 30 31 32 33 34 35 36 37 38 39 40 41 42 43 44 45 46 47 48 49 50
061
ASUS45 KABQ 242310
RWRNM
NEW MEXICO REGIONAL WEATHER ROUNDUP
NATIONAL WEATHER SERVICE ALBUQUERQUE NM
500 PM MDT WED AUG 24 2016

NOTE: "FAIR" MEANS FEW OR NO CLOUDS BELOW 12,000 FEET AGL WITH NO
       SIGNIFICANT WEATHER OR OBSTRUCTIONS TO VISION.

      THIS PRODUCT IS RELEASED AS TWO VERSIONS.  ONE VERSION NEAR
      THE TOP OF THE HOUR CONTAINING PRELIMINARY DATA FROM ALBUQUERQUE
      AND OTHER STATIONS.  A FINAL VERSION WITH ADDITIONAL DATA IS
      ISSUED ABOUT 10 MINUTES AFTER THE HOUR.

NMZ501-503-504-510>518-250000-
NORTHWEST PLATEAU/NORTHCENTRAL MOUNTAINS

CITY           SKY/WX    TMP DP  RH WIND       PRES   REMARKS
FARMINGTON     FAIR      81  40  23 W13       30.13F
LOS ALAMOS     FAIR      62  46  54 CALM      30.29R
SANTA FE       FAIR      69  45  41 NE8       30.22F
TAOS           PTSUNNY   63  46  55 E5        30.30R
ANGEL FIRE     RAIN      49  47  90 CALM      30.41R

$$
NMZ402-403-502-505>509-250000-
WESTCENTRAL MOUNTAINS/SOUTHWEST MOUNTAINS

CITY           SKY/WX    TMP DP  RH WIND       PRES   REMARKS
GALLUP         FAIR      75  36  24 CALM      30.23F
GRANTS         PTSUNNY   76  37  23 N9G20     30.24F
SILVER CITY    PTSUNNY   81  43  25 NW25G33   30.15S

$$
NMZ407-409-411-412-250000-
SOUTHERN DESERTS

CITY           SKY/WX    TMP DP  RH WIND       PRES   REMARKS
DEMING         FAIR      88  47  24 SW14G21   30.06F
LAS CRUCES     FAIR      87  42  20 SW9       30.08F
HOLLOMAN AFB   FAIR      89  45  21 W12G21    30.03F
ALAMOGORDO     FAIR      86  45  23 SW10      30.06F
T OR C         TSTM      80  48  32 NW5       30.09S

$$
NMZ519>523-250000-
CENTRAL VALLEYS/CENTRAL HIGHLANDS

CITY           SKY/WX    TMP DP  RH WIND       PRES   REMARKS
ALBUQUERQUE    PTSUNNY   75  49  39 N16G24    30.17F
DOUBLE EAGLE   PTSUNNY   72  48  43 N12       30.21S
MORIARTY ARPT  TSTM      62  50  66 N12G21    30.24R
CLINES CORNERS CLOUDY    65  45  48 NW18G24   30.27R
BELEN          FAIR      78  43  28 NW5       30.16F
SOCORRO        FAIR      79  47  32 N12       30.14S

$$
NMZ524>526-539-540-250000-
SOUTHCENTRAL MOUNTAINS

CITY           SKY/WX    TMP DP  RH WIND       PRES   REMARKS
RUIDOSO          N/A     72  43  35 W15G23    30.25S

$$
NMZ527>531-250000-
NORTHEAST HIGHLANDS/NORTHEAST PLAINS

CITY           SKY/WX    TMP DP  RH WIND       PRES   REMARKS
LAS VEGAS      CLOUDY    65  47  52 NE18      30.24R
RATON          FAIR      66  49  54 N15       30.24R
CLAYTON        FAIR      80  50  34 CALM      30.11F

$$
NMZ532>537-250000-
EASTCENTRAL PLAINS

CITY           SKY/WX    TMP DP  RH WIND       PRES   REMARKS
TUCUMCARI      FAIR      87  47  24 S14G21    30.03S
CANNON AFB     FAIR      82  55  39 S22G29    30.09R
CLOVIS AIRPORT FAIR      81  54  39 S20       30.10R

$$
NMZ028-029-538-250000-
SOUTHEAST PLAINS

CITY           SKY/WX    TMP DP  RH WIND       PRES   REMARKS
ROSWELL        FAIR      80  59  48 S22G29    30.05S
ARTESIA        FAIR      79  63  57 SE23      30.05S
CARLSBAD       FAIR      77  64  64 S17       30.04F
HOBBS          MOSUNNY   73  63  68 S8        30.11F


$$




USA.gov is the U.S. government's official web portal to all federal, state and local government web resources and services.